This demonstration page uses our WeatherBlox Daily Observations layout. Learn more.

Hourly Observations for May 27, 2019

Temp ( °F °C ) Dew Point ( °F °C ) Humidity (%) Winds ( mph kmh ) Pressure ( in mb ) Visibility ( mi km ) Precip ( " mm )
12:54 am 00:54 Cloudy with Rain 66 18.9 63 17.2 90 90 E 13 20 29.86 1011 5 8.0467 0.04 1.016
1:54 am 01:54 Mostly Clear 66 18.9 63 17.2 90 90 ESE 14 22 29.74 1007 10 16.0934 0.01 0.254
2:11 am 02:11 Mostly Cloudy 67 19.4 64 17.8 91 91 ESE 14 22 29.74 1007 10 16.0934 0 0
2:30 am 02:30 Cloudy with Nearby Thunderstorms 67 19.4 64 17.8 91 91 ESE 15 24 29.72 1006 10 16.0934 0 0
2:35 am 02:35 Cloudy with Nearby Thunderstorms 67 19.4 64 17.8 91 91 ESE 17 28 29.72 1006 10 16.0934 0 0
2:45 am 02:45 Cloudy with Heavy Thunderstorms 66 18.9 64 17.8 93 93 ESE 21 33 29.72 1006 2.5 4.02335 0.09 2.286
2:54 am 02:54 Cloudy with Light Thunderstorms 66 18.9 65 18.3 96 96 ESE 15 24 29.7 1006 3 4.82802 0.17 4.318
3:02 am 03:02 Cloudy with Nearby Thunderstorms 66 18.9 64 17.8 93 93 ESE 13 20 29.69 1005 8 12.87472 0.01 0.254
3:07 am 03:07 Cloudy with Nearby Thunderstorms 67 19.4 64 17.8 91 91 ESE 15 24 29.68 1005 10 16.0934 0.01 0.254
3:14 am 03:14 Cloudy with Light Thunderstorms 67 19.4 65 18.3 93 93 ESE 16 26 29.67 1005 5 8.0467 0.01 0.254
3:31 am 03:31 Cloudy with Nearby Thunderstorms 67 19.4 65 18.3 93 93 SE 16 26 29.67 1005 7 11.26538 0.12 3.048
3:54 am 03:54 Cloudy with Nearby Thunderstorms 69 20.6 65 18.3 87 87 S 24 39 29.65 1004 3 4.82802 0.21 5.334
4:04 am 04:04 Cloudy with Rain 68 20 65 18.3 90 90 S 18 30 29.65 1004 6 9.65604 0.02 0.508
4:54 am 04:54 Mostly Clear with Light Rain 65 18.3 61 16.1 87 87 S 22 35 29.63 1004 10 16.0934 0.05 1.27
5:39 am 05:39 Mostly Cloudy 64 17.8 60 15.6 87 87 SSW 16 26 29.65 1004 10 16.0934 0 0.0254
5:47 am 05:47 Mostly Cloudy 63 17.2 60 15.6 90 90 S 22 35 29.63 1003 10 16.0934 0 0.0254
5:54 am 05:54 Partly Cloudy 63 17.2 60 15.6 90 90 S 22 35 29.63 1003 10 16.0934 0 0.0254
6:03 am 06:03 Mostly Cloudy 64 17.8 59 15 84 84 SSW 24 39 29.64 1004 10 16.0934 0 0
6:54 am 06:54 Cloudy 64 17.8 60 15.6 87 87 SW 18 30 29.69 1005 10 16.0934 0.03 0.762
7:03 am 07:03 Cloudy 64 17.8 60 15.6 87 87 SW 16 26 29.7 1006 10 16.0934 0 0
7:16 am 07:16 Partly Cloudy 65 18.3 61 16.1 87 87 SW 17 28 29.69 1006 10 16.0934 0 0
7:54 am 07:54 Sunny 65 18.3 61 16.1 87 87 SW 13 20 29.72 1006 10 16.0934 0 0
8:54 am 08:54 Partly Cloudy 67 19.4 61 16.1 81 81 SSW 16 26 29.72 1006 10 16.0934 0 0
9:43 am 09:43 Mostly Cloudy 69 20.6 61 16.1 76 76 WSW 15 24 29.71 1006 10 16.0934 0 0
9:54 am 09:54 Mostly Cloudy 69 20.6 60 15.6 73 73 WSW 13 20 29.72 1007 10 16.0934 0 0
10:35 am 10:35 Partly Cloudy 71 21.7 60 15.6 68 68 SW 13 20 29.71 1006 10 16.0934 0 0
10:54 am 10:54 Partly Cloudy 72 22.2 60 15.6 66 66 WSW 10 17 29.72 1006 10 16.0934 0 0
11:54 am 11:54 Mostly Sunny 74 23.3 61 16.1 64 64 WSW 8 13 29.72 1006 10 16.0934 0 0
12:54 pm 12:54 Partly Cloudy 78 25.6 61 16.1 56 56 SSW 8 13 29.72 1006 10 16.0934 0 0
1:54 pm 13:54 Partly Cloudy 79 26.1 61 16.1 54 54 SW 6 9 29.71 1006 10 16.0934 0 0
2:54 pm 14:54 Mostly Cloudy 80 26.7 62 16.7 54 54 NNW 7 11 29.7 1006 10 16.0934 0 0
3:54 pm 15:54 Mostly Cloudy 81 27.2 63 17.2 54 54 N 8 13 29.68 1005 10 16.0934 0 0
4:54 pm 16:54 Mostly Sunny 82 27.8 61 16.1 49 49 VRB 3 6 29.67 1005 10 16.0934 0 0
5:54 pm 17:54 Partly Cloudy 81 27.2 62 16.7 53 53 ENE 3 6 29.67 1005 10 16.0934 0 0
6:54 pm 18:54 Mostly Cloudy 77 25 63 17.2 62 62 NE 8 13 29.66 1004 10 16.0934 0 0
7:54 pm 19:54 Partly Cloudy 76 24.4 63 17.2 64 64 NE 9 15 29.66 1004 10 16.0934 0 0
8:54 pm 20:54 Cloudy 72 22.2 62 16.7 71 71 NNE 15 24 29.66 1005 10 16.0934 0 0
9:54 pm 21:54 Mostly Clear 66 18.9 60 15.6 81 81 NNE 14 22 29.71 1006 10 16.0934 0 0
10:54 pm 22:54 Clear 64 17.8 58 14.4 81 81 NE 16 26 29.7 1006 10 16.0934 0 0
11:41 pm 23:41 Mostly Clear with Nearby Thunderstorms 63 17.2 57 13.9 81 81 NE 16 26 29.72 1006 10 16.0934 0 0
11:54 pm 23:54 Mostly Cloudy with Nearby Thunderstorms 62 16.7 58 14.4 86 86 NNE 14 22 29.72 1006 6 9.65604 0.01 0.254

Powered by AerisWeather